User: anonymous   Login
Location: Caltech
(34.1382°N, 118.1253°W)
Time: 17:47:46
(UTC-07:00)
Language:

IRS-1A Rocket - Orbit

View from above orbital plane
View from above orbital plane
View from above satellite
View from above satellite

Ground track
Ground track

The orbit data is extracted from the following two-line orbital elements,

1 18961U 88021B   15108.85735015 -.00000237  00000-0 -12647-3 0  9990
2 18961 099.2898 092.2005 0053632 231.7447 214.0481 14.00648612384789
Epoch (UTC): 18 April 2015 20:34:35
Eccentricity: 0.0053632
inclination: 99.2898°
perigee height: 852 km
apogee height: 930 km
right ascension of ascending node: 92.2005°
argument of perigee: 231.7447°
revolutions per day: 14.00648612
mean anomaly at epoch: 214.0481°
orbit number at epoch: 38478

The dashed part of the orbit path shows where the satellite is in the earth's shadow,  

DLR